Location: Ann Arbor
(42.2710°N, 83.7260°W)
Time: 07:29:00
(UTC-04:00)

Hubble Space Telescope - Visible Passes

Search period start: 17 October 2017 00:00
Search period end: 27 October 2017 00:00
Orbit: 537 x 541 km, 28.5° (Epoch: 16 October)

Date Brightness Start Highest point End Pass type
(mag) Time Alt. Az. Time Alt. Az. Time Alt. Az.
23 Oct 3.3 19:58:23 10° S 19:58:51 10° S 19:59:19 10° SSE visible
24 Oct 3.2 19:47:22 10° S 19:48:31 11° S 19:49:39 10° SSE visible
25 Oct 3.2 19:36:45 10° SSW 19:38:11 12° S 19:39:37 10° SSE visible
26 Oct 3.3 19:26:18 10° SSW 19:27:51 12° S 19:29:24 10° SSE visible
